Location: Newark
(54.2500°N, 9.1833°E)
Time: 07:39:41
(UTC+00:00)

Transit 4A - Pass Details

Date: 23 December 2019
Orbit: 872 x 973 km, 66.8° (Epoch: 27 January)

Event Time Altitude Azimuth Distance (km) Brightness Sun altitude
Rises 18:44:11 0° 304° (NW) 3,528 11.7 -30.7°
Reaches altitude 10° 18:47:08 10° 317° (NW) 2,571 10.7 -31.1°
Enters shadow 18:50:46 24° 352° (N) 1,738 9.4 -31.6°
